Location: Tierra Monte Subdivision
(35.2092°N, 106.4864°W)
Time: 08:44:46
(UTC+00:00)

CZ-2C R/B - Pass Details

Date: 30 March 2020
Orbit: 705 x 907 km, 98.1° (Epoch: 04 June)

Event Time Altitude Azimuth Distance (km) Brightness Sun altitude
Exits shadow 02:29:03 - 152° (SSE) 2,586 5.3 -13.6°
Reaches altitude 10° 02:29:40 10° 150° (SSE) 2,344 5.1 -13.7°
Maximum altitude 02:34:41 54° 74° (ENE) 917 3.1 -14.7°
Drops below altitude 10° 02:39:28 10° 358° (N) 2,244 5.6 -15.6°
Sets 02:41:44 0° 354° (N) 3,149 6.5 -16.1°
